Hourly Weather Ruse

Today, 14 May, Friday

Time Temperature Precipitation Wind Pressure Humidity
00:00 +12°C° 0 mm 1 mps 750 mmHg 94%
01:00 +12°C° 0 mm 1 mps 750 mmHg 94%
02:00 +12°C° 0 mm 2 mps 750 mmHg 94%
03:00 +12°C° 0 mm 2 mps 750 mmHg 93%
04:00 +12°C° 0 mm 2 mps 750 mmHg 93%
05:00 +12°C° 0 mm 2 mps 750 mmHg 93%
06:00 +13°C° 0 mm 2 mps 751 mmHg 86%
07:00 +15°C° 0 mm 2 mps 751 mmHg 80%
08:00 +17°C° 0 mm 2 mps 751 mmHg 74%
09:00 +19°C° 0 mm 2 mps 751 mmHg 66%
10:00 +20°C° 0 mm 3 mps 751 mmHg 57%
11:00 +22°C° 0 mm 3 mps 751 mmHg 49%
12:00 +22°C° 0 mm 3 mps 751 mmHg 47%
13:00 +24°C° 0 mm 3 mps 751 mmHg 45%
14:00 +25°C° 0 mm 4 mps 751 mmHg 43%
15:00 +24°C° 0 mm 3 mps 751 mmHg 48%
16:00 +22°C° 0 mm 3 mps 751 mmHg 52%
17:00 +23°C° 0 mm 2 mps 751 mmHg 56%
18:00 +20°C° 0.3 mm 2 mps 751 mmHg 65%
19:00 +17°C° 0.3 mm 2 mps 752 mmHg 74%
20:00 +15°C° 0.3 mm 2 mps 752 mmHg 83%
21:00 +15°C° 0 mm 2 mps 752 mmHg 84%
22:00 +14°C° 0 mm 2 mps 752 mmHg 85%
23:00 +14°C° 0 mm 2 mps 753 mmHg 85%

Tomorrow, 15 May, Saturday

Time Temperature Precipitation Wind Pressure Humidity
00:00 +13°C° 0 mm 1 mps 753 mmHg 85%
01:00 +13°C° 0 mm 1 mps 753 mmHg 84%
02:00 +13°C° 0 mm 1 mps 752 mmHg 83%
03:00 +13°C° 0 mm 1 mps 752 mmHg 82%
04:00 +13°C° 0 mm 1 mps 752 mmHg 82%
05:00 +12°C° 0 mm 0 mps 752 mmHg 81%
06:00 +14°C° 0 mm 0 mps 752 mmHg 76%
07:00 +15°C° 0 mm 0 mps 753 mmHg 72%
08:00 +17°C° 0 mm 0 mps 753 mmHg 67%
09:00 +21°C° 0 mm 1 mps 752 mmHg 62%
10:00 +21°C° 0 mm 2 mps 752 mmHg 56%
11:00 +24°C° 0 mm 2 mps 752 mmHg 51%
12:00 +25°C° 0 mm 3 mps 751 mmHg 49%
13:00 +26°C° 0 mm 3 mps 751 mmHg 47%
14:00 +27°C° 0 mm 3 mps 750 mmHg 46%
15:00 +26°C° 0.1 mm 4 mps 750 mmHg 51%
16:00 +25°C° 0.1 mm 4 mps 750 mmHg 57%
17:00 +23°C° 0.1 mm 5 mps 749 mmHg 62%
18:00 +21°C° 0.9 mm 4 mps 749 mmHg 71%
19:00 +18°C° 0.9 mm 2 mps 749 mmHg 81%
20:00 +16°C° 0.9 mm 1 mps 750 mmHg 91%
21:00 +16°C° 0.4 mm 1 mps 750 mmHg 92%
22:00 +15°C° 0.4 mm 1 mps 750 mmHg 93%
23:00 +15°C° 0.4 mm 2 mps 751 mmHg 94%

Day after tomorrow, 16 May, Sunday

Time Temperature Precipitation Wind Pressure Humidity
00:00 +15°C° 0.1 mm 1 mps 751 mmHg 94%
01:00 +14°C° 0.1 mm 1 mps 751 mmHg 95%
02:00 +14°C° 0.1 mm 1 mps 751 mmHg 95%
03:00 +13°C° 0 mm 1 mps 750 mmHg 95%
04:00 +13°C° 0 mm 1 mps 750 mmHg 95%
05:00 +13°C° 0 mm 1 mps 750 mmHg 95%
06:00 +14°C° 0 mm 1 mps 751 mmHg 91%
07:00 +16°C° 0 mm 1 mps 751 mmHg 87%
08:00 +18°C° 0 mm 1 mps 751 mmHg 83%
09:00 +20°C° 0 mm 1 mps 751 mmHg 77%
10:00 +21°C° 0 mm 1 mps 751 mmHg 71%
11:00 +22°C° 0 mm 1 mps 751 mmHg 66%
12:00 +23°C° 0.1 mm 1 mps 751 mmHg 62%
13:00 +24°C° 0.1 mm 1 mps 750 mmHg 58%
14:00 +25°C° 0.1 mm 1 mps 750 mmHg 55%
15:00 +25°C° 0.1 mm 2 mps 750 mmHg 56%
16:00 +24°C° 0.1 mm 2 mps 749 mmHg 58%
17:00 +24°C° 0.1 mm 2 mps 749 mmHg 60%
18:00 +21°C° 0.7 mm 2 mps 749 mmHg 67%
19:00 +20°C° 0.7 mm 2 mps 750 mmHg 74%
20:00 +19°C° 0.7 mm 1 mps 750 mmHg 81%
21:00 +17°C° 0.5 mm 2 mps 750 mmHg 84%
22:00 +17°C° 0.5 mm 2 mps 750 mmHg 86%
23:00 +16°C° 0.5 mm 2 mps 750 mmHg 89%

17 May, Monday

Time Temperature Precipitation Wind Pressure Humidity
00:00 +16°C° 0.1 mm 2 mps 750 mmHg 90%
01:00 +15°C° 0.1 mm 2 mps 750 mmHg 91%
02:00 +15°C° 0.1 mm 2 mps 750 mmHg 92%
03:00 +15°C° 0 mm 2 mps 750 mmHg 92%
04:00 +14°C° 0 mm 2 mps 750 mmHg 92%
05:00 +14°C° 0 mm 2 mps 750 mmHg 92%
06:00 +15°C° 0 mm 2 mps 751 mmHg 86%
07:00 +17°C° 0 mm 3 mps 751 mmHg 80%
08:00 +18°C° 0 mm 3 mps 751 mmHg 74%
09:00 +20°C° 0 mm 3 mps 751 mmHg 68%
10:00 +22°C° 0 mm 3 mps 751 mmHg 62%
11:00 +24°C° 0 mm 3 mps 751 mmHg 56%
12:00 +25°C° 0 mm 3 mps 751 mmHg 55%
13:00 +25°C° 0 mm 3 mps 751 mmHg 54%
14:00 +26°C° 0 mm 3 mps 751 mmHg 53%
15:00 +26°C° 0 mm 2 mps 750 mmHg 53%
16:00 +26°C° 0 mm 2 mps 750 mmHg 54%
17:00 +26°C° 0 mm 2 mps 750 mmHg 54%
18:00 +24°C° 0.1 mm 1 mps 750 mmHg 61%
19:00 +22°C° 0.1 mm 1 mps 750 mmHg 68%
20:00 +20°C° 0.1 mm 1 mps 751 mmHg 75%
21:00 +20°C° 0.5 mm 1 mps 751 mmHg 79%
22:00 +19°C° 0.5 mm 1 mps 751 mmHg 83%
23:00 +19°C° 0.5 mm 1 mps 752 mmHg 86%

18 May, Tuesday

Time Temperature Precipitation Wind Pressure Humidity
00:00 +19°C° 0 mm 1 mps 752 mmHg 88%
01:00 +18°C° 0 mm 1 mps 752 mmHg 89%
02:00 +17°C° 0 mm 2 mps 752 mmHg 90%
03:00 +18°C° 0 mm 1 mps 751 mmHg 91%
04:00 +18°C° 0 mm 1 mps 751 mmHg 91%
05:00 +18°C° 0 mm 1 mps 751 mmHg 91%
06:00 +19°C° 0 mm 1 mps 752 mmHg 87%
07:00 +20°C° 0 mm 1 mps 752 mmHg 84%
08:00 +21°C° 0 mm 1 mps 752 mmHg 80%
09:00 +23°C° 0 mm 1 mps 752 mmHg 75%
10:00 +24°C° 0 mm 1 mps 752 mmHg 69%
11:00 +25°C° 0 mm 1 mps 751 mmHg 64%
12:00 +26°C° 0.1 mm 1 mps 751 mmHg 60%
13:00 +28°C° 0.1 mm 1 mps 750 mmHg 57%
14:00 +29°C° 0.1 mm 1 mps 749 mmHg 53%
15:00 +27°C° 0.4 mm 3 mps 749 mmHg 60%
16:00 +26°C° 0.4 mm 5 mps 749 mmHg 67%
17:00 +24°C° 0.4 mm 7 mps 748 mmHg 74%
18:00 +21°C° 0.5 mm 7 mps 750 mmHg 76%
19:00 +17°C° 0.5 mm 7 mps 751 mmHg 79%
20:00 +12°C° 0.5 mm 7 mps 753 mmHg 81%
21:00 +12°C° 0 mm 7 mps 753 mmHg 81%
22:00 +13°C° 0 mm 6 mps 753 mmHg 81%
23:00 +13°C° 0 mm 6 mps 754 mmHg 81%

19 May, Wednesday

Time Temperature Precipitation Wind Pressure Humidity
00:00 +12°C° 0 mm 7 mps 754 mmHg 78%
01:00 +12°C° 0 mm 7 mps 754 mmHg 75%
02:00 +12°C° 0 mm 8 mps 754 mmHg 71%
03:00 +11°C° 0 mm 8 mps 754 mmHg 73%
04:00 +11°C° 0 mm 8 mps 755 mmHg 75%
05:00 +10°C° 0 mm 7 mps 755 mmHg 77%
06:00 +11°C° 0 mm 8 mps 755 mmHg 76%
07:00 +12°C° 0 mm 8 mps 755 mmHg 74%
08:00 +13°C° 0 mm 9 mps 755 mmHg 73%
09:00 +15°C° 0 mm 8 mps 755 mmHg 68%
10:00 +16°C° 0 mm 8 mps 755 mmHg 64%
11:00 +17°C° 0 mm 8 mps 755 mmHg 59%
12:00 +18°C° 0 mm 7 mps 755 mmHg 57%
13:00 +18°C° 0 mm 7 mps 755 mmHg 55%
14:00 +20°C° 0 mm 6 mps 755 mmHg 54%
15:00 +20°C° 0 mm 6 mps 755 mmHg 54%
16:00 +20°C° 0 mm 6 mps 755 mmHg 54%
17:00 +20°C° 0 mm 6 mps 755 mmHg 55%
18:00 +17°C° 0 mm 5 mps 755 mmHg 59%
19:00 +15°C° 0 mm 4 mps 755 mmHg 64%
20:00 +13°C° 0 mm 3 mps 755 mmHg 68%
21:00 +13°C° 0 mm 3 mps 755 mmHg 70%
22:00 +13°C° 0 mm 2 mps 755 mmHg 72%
23:00 +13°C° 0 mm 2 mps 756 mmHg 73%
Show more